Lid_Strength_Index
-0 -0 0 1 1 0 1 4 10 4 3 10 9 13 11 8 9 7 8 8 9 11 11 12 12 12 9 7 8 11 9 11 14 13 10 9 10 11 11 15 16 15 17 15
-0 0 1 1 1 1 3 7 8 3 5 13 13 11 11 9 9 9 9 9 8 8 11 13 11 10 8 7 8 10 10 13 16 14 12 11 12 11 10 11 13 16 18 15
0 1 2 2 2 1 3 7 12 8 7 9 11 12 12 12 8 9 9 9 8 10 11 10 12 11 8 7 8 8 8 12 14 16 14 12 13 11 11 11 16 15 15 13
2 2 2 2 2 2 4 8 11 9 12 11 10 10 11 12 12 9 8 10 10 10 13 12 12 10 10 8 8 8 10 15 13 12 11 11 11 11 11 12 12 14 13 12
3 2 2 2 2 2 5 11 10 8 10 9 10 11 12 12 11 10 11 11 10 10 12 11 12 10 10 11 9 10 9 14 13 14 11 10 12 11 11 10 11 11 11 11
3 2 2 2 2 2 6 6 7 8 9 10 11 12 12 11 10 9 9 9 10 11 10 8 7 8 8 9 10 11 11 13 15 17 12 12 14 12 11 10 10 10 13 10
3 3 3 3 3 3 4 6 6 10 12 11 11 10 10 11 10 11 9 9 10 8 6 6 7 8 9 9 9 8 12 13 13 16 14 20 12 9 9 10 10 10 10 10
3 3 3 3 3 3 4 5 7 9 12 10 11 10 10 10 9 10 10 9 7 7 8 11 13 13 13 11 10 10 9 12 15 17 18 14 12 10 11 11 11 9 10 9
3 3 3 3 3 2 4 4 4 7 10 11 9 10 10 11 11 11 9 6 5 7 10 12 15 17 14 15 13 9 9 10 13 15 18 20 13 9 7 8 14 9 8 8
3 3 2 2 3 2 3 4 4 6 11 8 8 10 10 8 10 11 10 8 8 6 12 14 15 15 11 15 16 15 14 13 16 16 17 15 10 8 7 14 13 8 7 8
1 1 1 1 1 1 2 4 3 5 8 7 5 5 7 7 8 10 9 8 8 9 12 13 14 15 13 13 12 13 14 15 16 15 17 18 8 8 12 10 7 7 7 8
1 0 0 0 0 0 1 4 2 1 5 6 3 3 3 4 4 6 7 8 8 8 11 11 13 15 16 13 16 10 14 12 14 13 13 8 7 8 7 6 7 7 7 6
0 0 0 0 0 -0 0 2 2 3 6 7 7 6 3 1 2 2 8 7 6 7 6 9 10 13 12 16 13 11 9 8 12 12 9 8 7 7 6 6 6 6 6 6
0 0 0 0 0 -0 0 2 1 3 5 9 8 3 4 1 2 2 3 4 4 5 6 8 10 13 9 13 10 12 10 9 10 11 9 8 7 6 6 6 5 5 5 5
0 0 0 0 0 -0 1 1 2 1 5 10 8 4 3 2 2 3 3 4 6 7 9 10 11 9 10 10 10 11 9 10 12 12 8 9 8 6 6 6 6 5 6 5
0 0 0 0 0 0 2 5 2 1 2 7 10 5 5 3 3 4 5 5 6 6 8 10 8 7 8 12 13 9 8 8 7 9 6 6 6 6 5 6 6 5 5 5
0 0 0 0 0 1 4 6 4 1 2 7 10 10 5 4 4 5 5 4 6 7 8 9 9 9 8 13 13 9 9 9 7 8 6 7 7 7 6 6 6 6 6 6
0 0 0 0 0 1 3 2 2 2 4 6 11 10 8 6 9 9 5 7 7 7 8 8 9 8 9 13 12 11 10 9 8 9 8 8 6 7 8 8 7 9 11 11
1 1 1 1 3 5 4 1 1 1 5 11 13 14 13 7 8 8 8 7 11 7 10 10 9 12 16 14 13 12 12 11 10 8 9 9 10 11 12 12 12 13 15 15
1 2 5 8 5 2 2 4 6 7 6 8 12 11 12 8 10 10 11 11 11 12 10 8 12 15 13 13 12 13 12 11 10 11 11 11 11 13 14 14 14 15 16 17
4 6 7 4 2 4 6 10 10 10 12 10 11 11 10 8 12 10 12 13 12 14 13 12 15 18 16 14 14 14 13 12 12 12 12 12 13 14 15 16 16 17 17 17
4 5 4 6 6 10 11 13 12 12 12 10 12 11 9 9 7 9 9 12 11 15 11 15 19 17 15 15 15 15 15 15 15 15 15 15 16 16 16 16 17 17 17 17
4 7 9 10 12 17 17 15 13 12 11 11 10 10 10 9 9 10 10 12 13 11 16 20 19 16 16 16 16 17 16 16 16 16 16 16 16 16 16 17 18 18 18 18
11 13 18 18 19 16 16 15 14 12 11 12 12 11 11 10 11 11 13 13 13 17 21 22 18 17 16 16 16 16 17 17 18 18 18 18 19 19 18 18 19 19 20 19
14 15 19 19 15 15 14 14 13 12 11 12 11 11 11 12 14 14 14 18 21 20 22 20 18 16 16 17 16 17 18 19 19 19 19 19 19 20 20 19 19 19 19 20
15 16 19 18 19 18 18 16 15 12 13 12 12 13 14 17 17 19 20 21 23 22 19 18 18 18 19 18 18 18 18 18 18 19 19 19 19 20 20 19 20 20 19 20
18 19 20 20 21 19 16 15 15 13 13 15 15 19 19 16 18 21 20 23 22 21 20 19 19 19 19 19 19 19 19 19 20 19 18 19 18 18 19 20 20 19 19 20